Tous les Résultats et les Classements des Compétitions E.S.F.

FRIEDEWALD SAMUEL M. - 2001 -

Points Ski Open

Classement National

0 / 144785

Mes 4 dernières courses

31ème SKI D'OR - MONTGENEVRE, le 09/04/2017 Coupe des partenaires MINIMES GARC 40ième OR
31ème SKI D'OR - MONTGENEVRE, le 08/04/2017 MINIMES GARCONS GROUPE B 47ième VE
31ème SKI D'OR - MONTGENEVRE, le 08/04/2017 MINIMES GARCONS GROUPE B 44ième VE
ESF PUY ST VINCENT (Manche 2) : Flèche du 18/03/2017 13ième VE

Disciplines pratiquées

Résultats SKIOPEN (Flèche - Chamois - Fusée)

Bilan SkiOpen au 01/04/2020 à 00h26

Nom - Prénom Code Sexe An Pts Scratch Clt/Categ
FRIEDEWALD SAMUEL       FFS2663032 M 2001 0/144785 0/0 -
(ESF1148510170,ESF1500065731,FFS2663032)

Palmarès

Epreuve Disc. Etat Saison Temps Pts Médaille Clt  
31ème SKI D'OR - MONTGENEVRE, le 09/04/2017 Coupe des partenaires MINIMES GARC F 2017 30.05 14.35 Or 40
31ème SKI D'OR - MONTGENEVRE, le 08/04/2017 MINIMES GARCONS GROUPE B C 2017 37.82 24.51 Vermeil 47
31ème SKI D'OR - MONTGENEVRE, le 08/04/2017 MINIMES GARCONS GROUPE B C 2017 36.53 18.60 Vermeil 44
ESF PUY ST VINCENT (Manche 2) : Flèche du 18/03/2017 F 2017 47.11 20.58 Vermeil 13
ESF PUY ST VINCENT (Manche 1) : Flèche du 18/03/2017 F 2017 46.88 21.45 Vermeil 10
ESF SERRE CHE. VILLENEUVE : Flèche du 11/03/2017 à 12h15 F 2017 46.20 21.58 Vermeil 41
ESF SERRE CHE. VILLENEUVE : Flèche du 11/03/2017 à 10h15 F 2017 42.71 25.47 Vermeil 37
ESF ORRES (LES) : Chamois du 24/02/2017 à 14h30 C 2017 35.27 20.20 Vermeil 4
ESF ORRES (LES) : Flèche du 22/02/2017 à 12h30 F 2017 47.49 18.05 Vermeil 20
ESF ORRES (LES) : Flèche du 21/02/2017 à 12h30 F 2017 47.09 18.85 Vermeil 24
ESF ORRES (LES) : Chamois du 18/02/2017 à 10h00 C 2017 ABD 38
ESF ORRES (LES) : Chamois du 18/02/2017 à 11h00 C 2017 ABD 39
ESF ORRES (LES) : Chamois du 17/02/2017 à 14h30 C 2017 33.26 14.49 Vermeil 3
ESF ORRES (LES) : Chamois du 17/02/2017 à 15h30 C 2017 33.87 16.39 Vermeil 3
ESF ORRES (LES) : Flèche du 15/02/2017 à 12h30 F 2017 50.81 12.56 Or 19
ESF ORRES (LES) : Flèche du 14/02/2017 à 12h30 F 2017 47.47 16.15 Vermeil 15
ESF ORRES (LES) : Chamois du 11/02/2017 à 11h00 C 2017 ABS 48
ESF ORRES (LES) : Chamois du 11/02/2017 C 2017 ABS 46
ESF MONTGENEVRE "ESF SKI TOUR 2017", le 04/02/2017 manche 1 C 2017 45.56 18.14 Vermeil 10
ESF MONTGENEVRE "ESF SKI TOUR 2017", le 04/02/2017 manche 2 C 2017 52.89 36.82 Argent 58
ESF SERRE CHE. MONETIER "ESF SKI TOUR 2017", le 28/01/2017 Manche 1 C 2017 ABD 119
ESF SERRE CHE. MONETIER "ESF SKI TOUR 2017", le 28/01/2017 Manche 2 C 2017 51.20 16.26 Vermeil 10
ESF PRA LOUP "ESF SKI TOUR 2017", le 21/01/2017 F 2017 41.63 18.64 Vermeil 6
ESF PRA LOUP "ESF SKI TOUR 2017", le 21/01/2017 F 2017 41.39 19.14 Vermeil 9
ESF PRA LOUP "ESF SKI TOUR 2017", le 21/01/2017 F 2017 40.86 20.64 Vermeil 9
ESF SERRE CHE. CHANTEMERLE (Manche 2) : SX du 14/01/2017 SX 2017 54.00 Sx Or 21
ESF SERRE CHE. CHANTEMERLE (Manche 1) : SX du 14/01/2017 SX 2017 53.88 Sx Or 15
ESF SERRE CHE. CHANTEMERLE (Manche 1) : SX du 14/01/2017 SX 2017 53.88 Sx Or 15
30ème SKI D'OR - AVORIAZ - Coupe des partenaires MINIMES GARCONS, le 10/04/20 F 2016 ABS 148
30ème SKI D'OR - AVORIAZ MINIMES GARCONS GROUPE A, le 09/04/2016 C 2016 ABS 93
30ème SKI D'OR - AVORIAZ MINIMES GARCONS GROUPE A, le 09/04/2016 C 2016 ABS 90
ESF ORRES (LES) : Chamois du 07/04/2016 à 11h30 C 2016 ABS 49
ESF ORRES (LES) : Chamois du 07/04/2016 C 2016 ABS 49
ESF ORRES (LES) : Chamois du 07/04/2016 à 10h30 C 2016 ABS 49
ESF VARS "ESF SKI TOUR 2016", le 27/02/2016 U14 U16 U18 FILLES ET GARCONS 2èm F 2016 ABS 146
ESF VARS "ESF SKI TOUR 2016", le 27/02/2016 U14 U16 U 18 FILLES ET GARCONS 1è F 2016 ABD 138
ESF ORRES (LES) : Chamois du 19/02/2016 à 15h00 C 2016 ABS 69
ESF ORRES (LES) : Chamois du 19/02/2016 à 14h30 C 2016 ABS 72
ESF ORRES (LES) : Flèche du 17/02/2016 à 12h30 F 2016 47.35 15.60 Vermeil 19
ESF ORRES (LES) : Flèche du 16/02/2016 F 2016 47.48 16.80 Vermeil 25
ESF ORRES (LES) : Chamois du 12/02/2016 à 14h30 C 2016 44.14 28.06 Argent 9
ESF ORRES (LES) : Flèche du 10/02/2016 à 12h00 F 2016 55.10 19.37 Vermeil 21
ESF SERRE CHE. MONETIER : Chamois du 31/01/2016 à 12h45 C 2016 47.79 29.20 Argent 43
ESF SERRE CHE. MONETIER : Chamois du 31/01/2016 à 10h00 C 2016 48.01 28.22 Argent 20
ESF REALLON "ESF SKI TOUR 2016", le 16/01/2016 TROPHEE THIERRY ALCAZAR M 2 F 2016 1:00.99 21.57 Vermeil 23
ESF REALLON "ESF SKI TOUR 2016", le 16/01/2016 TROPHEE THIERRY ALCAZAR M 1 F 2016 1:00.26 20.14 Vermeil 17
ESF ORRES (LES) (Manche 2) : Flèche du 14/03/2015 à 10h00 F 2015 49.64 12.92 Or 32
ESF ORRES (LES) (Manche 1) : Flèche du 14/03/2015 à 10h00 F 2015 48.96 20.35 Vermeil 35
ESF ORRES (LES) : Chamois du 06/03/2015 à 14h30 C 2015 ABD 62
ESF ORRES (LES) : Flèche du 04/03/2015 à 12h30 F 2015 48.48 26.94 Vermeil 40
ESF ORRES (LES) : Flèche du 03/03/2015 à 12h30 F 2015 48.58 23.36 Vermeil 13
ESF ORRES (LES) : Chamois du 27/02/2015 à 14h30 C 2015 40.36 32.42 Argent 9
ESF ORRES (LES) : Chamois du 27/02/2015 à 14h30 C 2015 42.09 32.54 Argent 8
ESF ORRES (LES) : Flèche du 25/02/2015 à 12h30 F 2015 51.80 23.10 Vermeil 23
ESF ORRES (LES) : Flèche du 24/02/2015 à 12h30 F 2015 53.00 16.10 Vermeil 17
ESF REALLON "ESF SKI TOUR 2015", le 31/01/2015 F 2015 1:03.67 20.38 Vermeil 12
ESF REALLON "ESF SKI TOUR 2015", le 31/01/2015 F 2015 1:03.91 21.25 Vermeil 13
ESF PRA LOUP "ESF SKI TOUR 2015", le 24/01/2015 F 2015 43.09 32.26 Argent 109
ESF PRA LOUP "ESF SKI TOUR 2015", le 24/01/2015 F 2015 ABD 200
34ème ETOILE D'OR, MONTGENEVRE, le 23/03/2014 COUPE PARTENAIRE - BENJAMINS - B F 2014 ABS 107
34ème ETOILE D'OR, MONTGENEVRE, le 22/03/2014 BENJAMINS A, MANCHE 1 F 2014 59.41 33.42 Argent 81
34ème ETOILE D'OR, MONTGENEVRE, le 22/03/2014 BENJAMINS A, MANCHE 2 F 2014 ABD 108
ESF ORRES (LES) : Chamois du 07/03/2014 à 14h30 C 2014 45.71 40.09 Argent 23
ESF ORRES (LES) : Flèche du 05/03/2014 F 2014 56.92 20.95 Vermeil 33
ESF ORRES (LES) : Flèche du 04/03/2014 à 12h30 F 2014 54.52 15.88 Vermeil 20
ESF ORRES (LES) (Manche 1) : Chamois du 28/02/2014 à 14h30 C 2014 42.87 31.82 Argent 17
ESF ORRES (LES) : Flèche du 25/02/2014 à 13h00 F 2014 48.76 25.57 Vermeil 49
ESF REALLON "ESF SKI TOUR 2014" le 01/02/2014 MANCHE 2 F 2014 1:02.89 30.07 Argent 74
ESF REALLON "ESF SKI TOUR 2014" le 01/02/2014 MANCHE 1 F 2014 DSQ 153
ESF MONTGENEVRE "ESF SKI TOUR 2014", le 18/01/2014 F 2014 57.48 29.37 Argent 51
ESF MONTGENEVRE "ESF SKI TOUR 2014", le 18/01/2014 F 2014 58.13 32.63 Argent 66
ESF ORRES (LES) (Manche 1) : Chamois du 03/01/2014 à 14h30 C 2014 ABS 56
ESF ORRES (LES) : Flèche du 03/01/2014 à 12h00 F 2014 ABS 96
ESF ORRES (LES) : Flèche du 31/03/2013 à 10h00 F 2013 55.92 33.88 Argent 85
ESF ORRES (LES) : Chamois du 01/03/2013 à 14h30 C 2013 46.22 42.15 Argent 20
ESF ORRES (LES) : Flèche du 28/02/2013 à 12h30 F 2013 56.92 23.31 Vermeil 26
ESF ORRES (LES) : Flèche du 27/02/2013 à 12h30 F 2013 52.01 21.43 Vermeil 27
ESF ORRES (LES) : Flèche du 26/02/2013 à 12h30 F 2013 54.04 25.91 Vermeil 31
ESF MONTGENEVRE : Chamois du 23/02/2013 à 09h30 C 2013 47.09 46.84 Bronze 91
ESF MONTGENEVRE : SKI du 23/02/2013 à 09h30 SKI 2013 49.19 90
ESF MONTGENEVRE : SKI du 23/02/2013 à 09h30 SKI 2013 47.09 80
ESF ORRES (LES) : Chamois du 22/02/2013 à 14h30 C 2013 43.97 49.13 Bronze 30
ESF ORRES (LES) : Flèche du 21/02/2013 à 12h30 F 2013 54.42 27.54 Vermeil 30
ESF ORRES (LES) : Flèche du 20/02/2013 à 12h30 F 2013 53.81 24.59 Vermeil 36
ESF ORRES (LES) : Flèche du 19/02/2013 à 12h30 F 2013 52.82 25.40 Vermeil 36
ESF PRA LOUP "ESF SKI TOUR 2013", le 02/02/2013 F 2013 50.10 45.13 Bronze 68
ESF PRA LOUP " ESF SKI TOUR 2013", le 02/02/2013 F 2013 52.02 53.72 Fléchette 76
ESF REALLON "ESF SKI TOUR 2013", le 26/01/2013 F 2013 DSQ 115
ESF REALLON "ESF SKI TOUR 2013", le 26/01/2013 F 2013 1:04.92 39.61 Argent 87
ESF ORRES (LES) : Flèche du 28/12/2012 à 12h30 F 2013 ABS 105
ESF ORRES (LES) : Flèche du 27/12/2012 à 12h30 F 2013 - 84
ESF ORRES (LES) : Flèche du 25/03/2012 F 2012 53.82 38.65 Argent 69
ESF ORRES (LES) : Chamois du 09/03/2012 C 2012 48.62 56.11 Bronze 25
ESF MONTGENEVRE : Chamois du 18/02/2012 C 2012 57.41 62.33 Cabri 75
ESF MONTGENEVRE : Chamois du 18/02/2012 C 2012 54.59 55.34 Bronze 80
ESF MONTGENEVRE "ESF SKI TOUR 2012" le 18/02/2012 C 2012 54.59 55.34 Bronze 90
ESF MONTGENEVRE "ESF SKI TOUR 2012" le 18/02/2012 C 2012 54.59 60.01 Cabri 80
ESF ORRES (LES) : Flèche du 29/01/2012 F 2012 1:04.14 49.89 Bronze 58
ESF REALLON "ESF SKI TOUR 2012" le 28/01/2012 F 2012 1:10.67 47.69 Bronze 95
ESF ORRES (LES) : Chamois du 04/03/2011 C 2011 57.88 84.27 57
ESF ORRES (LES) : Flèche du 03/03/2011 F 2011 1:05.46 52.70 Bronze 63
ESF ORRES (LES) : Flèche du 02/03/2011 F 2011 1:05.74 52.45 Bronze 31
ESF ORRES (LES) : Flèche du 23/02/2011 F 2011 58.66 47.90 Bronze 41
 Epreuve validée par le service technique du S.N.M.S.F. P1 Performance N°1
 Epreuve non validée par le service technique du S.N.M.S.F. P2 Performance N°2
  En attente de validation ou d’informations complémentaires de l’esf organisatrice.
 Epreuve antérieure au 1er Décembre 2017, ne comptant plus pour le classement SKIOPEN.
 Autre discipline validée (ne comptant pas pour le classement SKIOPEN).